CAPE
1300 1176 1150 1076 1103 956 1640 1854 1602 1476 1609 1436 1155 1141 1184 986 888 908 945 1003 998 967 975 900 689 619 727 757 783 759 632 463 109 0 1 0 0 134 1075 1985 1837 1669 1826 1942 2006 2098 1800 1306 1178 1037 911 738 774 554 374 387 369 321 224 127 47 20 0 0 0 0 1 2 1 1 2 10 7 16 19 30 54 153 206 291 354 357 381 431 465
1038 855 933 993 1050 1173 1441 1575 1332 1182 1285 1406 1274 1152 1225 995 923 996 989 957 879 849 970 824 764 669 660 823 873 825 673 589 487 415 357 314 306 320 752 1612 1928 1670 1591 1871 2075 2210 1891 1325 1149 1206 985 825 767 800 642 553 442 393 352 281 129 72 38 0 0 0 0 2 2 3 5 8 9 10 7 3 28 92 137 217 342 312 329 380 420
956 1184 1288 1241 1031 928 873 814 799 1016 1150 1046 1133 1205 1206 1080 933 941 946 848 881 896 855 789 691 705 675 709 848 860 793 710 638 546 478 452 420 382 345 1116 1700 2014 1883 1568 1665 1972 2162 1873 1646 1234 1141 1042 885 848 872 581 638 453 494 384 288 178 113 67 0 0 0 1 4 5 6 9 12 10 8 2 6 31 88 179 307 206 251 356 273
1386 1408 1205 872 842 761 770 734 930 1166 1443 1401 1403 1306 1102 854 814 911 872 896 876 884 862 821 778 714 680 689 662 724 768 862 828 756 716 684 670 632 571 539 1149 1988 2168 1797 1498 1576 1732 1612 1573 1141 906 1077 1012 738 916 959 912 832 389 435 424 390 265 162 80 97 1 3 5 8 6 7 10 11 8 7 2 5 19 104 252 159 194 274 281
1244 1165 947 892 852 825 896 1066 1151 1231 1338 1334 1261 1133 1078 1048 994 923 855 857 866 878 862 808 767 718 675 684 687 735 707 770 872 888 895 902 901 891 852 816 801 836 1076 1665 1686 1457 1496 1633 1639 1227 772 903 782 784 1293 1020 920 994 661 498 514 434 361 318 204 8 70 2 3 10 16 14 16 16 10 8 7 3 0 55 211 224 143 162 294
1122 972 888 943 845 802 958 1080 1122 1304 1343 1290 1188 1093 930 926 907 845 959 860 823 808 771 741 724 689 661 634 632 610 575 539 622 721 826 900 950 1020 1066 1045 1003 958 929 944 1198 1410 1540 1466 1590 1753 1639 841 698 606 706 788 997 864 824 618 573 423 394 333 328 184 78 6 6 6 24 55 44 26 12 10 9 6 2 24 216 269 202 180 186
1011 1100 1101 1018 836 816 997 1128 1293 1324 1344 1318 1281 1027 934 908 889 776 744 786 727 650 629 647 661 690 674 594 508 409 413 417 470 493 556 689 862 1060 1184 1216 1154 1082 1128 1115 1054 1007 991 1243 1630 1749 1766 1734 1185 854 736 967 904 878 715 725 697 458 401 413 357 298 57 8 11 14 25 70 77 52 27 7 6 4 3 13 188 298 280 147 112
1015 977 1101 1098 880 864 885 1174 1352 1393 1317 1330 1156 1072 912 857 835 706 663 614 542 462 470 494 539 572 527 554 464 350 320 308 336 424 554 720 876 1050 1164 1163 1127 1190 1218 1213 1200 1222 1213 1156 1040 937 1196 1367 1540 1686 1375 764 708 645 970 837 812 744 562 432 410 194 219 156 124 36 19 67 105 117 64 22 4 3 4 3 156 273 298 198 86
919 822 951 951 838 951 905 1094 1221 1301 1115 1112 910 901 892 778 751 538 521 481 422 361 365 414 444 482 520 448 302 279 248 376 472 535 604 626 616 652 736 890 1006 1082 1154 1203 1216 1169 1177 1207 1199 1137 1083 991 969 1004 1034 940 875 882 1059 1042 942 815 735 549 535 423 196 195 80 163 53 103 109 109 149 72 22 8 4 4 87 146 259 242 67
972 966 912 824 895 1045 1053 988 1037 1025 974 857 746 657 668 613 383 363 342 300 277 286 317 352 381 392 347 245 249 224 383 275 290 418 517 453 423 512 531 553 593 611 648 670 722 792 778 758 751 744 753 771 758 841 1113 1094 1544 1061 995 990 910 765 694 789 674 530 384 318 221 144 73 106 155 161 183 178 62 26 4 4 43 93 154 276 139
797 670 751 804 830 934 1006 997 902 893 806 673 543 432 358 325 288 290 262 246 247 279 301 334 350 337 290 200 189 366 265 180 202 343 457 337 262 366 399 365 420 473 481 540 568 583 484 426 405 467 477 474 648 766 927 1067 1225 1280 822 1113 1035 940 918 863 836 650 534 468 390 248 223 158 188 154 196 215 152 50 17 29 61 75 129 228 194
653 665 736 796 838 780 709 725 762 715 640 537 438 368 333 330 287 253 242 236 234 238 234 244 215 60 52 0 132 533 346 0 108 300 327 265 194 221 293 362 443 449 477 443 450 479 459 382 332 328 342 357 365 431 490 644 646 898 798 613 589 556 627 802 864 668 586 502 484 350 218 246 156 153 185 204 175 101 37 38 67 70 104 202 223
739 749 740 776 784 751 706 638 629 569 476 352 282 285 258 244 238 244 237 228 213 191 186 0 0 0 0 0 0 563 601 465 266 284 360 277 210 204 217 308 345 385 401 372 352 346 363 337 325 312 313 307 282 226 287 359 422 533 749 820 769 777 789 642 705 751 697 668 565 548 406 330 272 234 187 196 202 200 91 48 60 78 60 66 175
668 678 674 685 679 649 594 560 496 467 392 309 268 262 242 221 210 201 200 176 192 0 0 0 0 0 0 0 0 98 634 699 526 284 261 220 223 240 236 211 231 232 267 284 312 290 294 322 325 312 318 300 271 254 22 70 172 331 385 516 520 534 531 527 436 437 700 778 648 486 408 319 376 305 220 206 201 221 165 66 42 69 85 64 90
603 609 612 587 560 534 503 456 399 333 309 319 250 253 187 0 0 0 50 0 0 0 0 0 0 0 0 0 0 0 159 350 283 408 189 146 0 162 237 217 101 0 0 123 215 235 223 295 338 341 317 293 279 253 234 238 13 28 34 183 399 443 450 406 445 445 488 649 667 655 555 368 380 370 318 290 218 201 202 123 25 49 73 85 59
489 493 523 476 442 472 427 381 380 330 286 287 256 255 0 0 0 0 9 0 0 0 0 0 0 0 0 0 64 0 1 0 0 12 24 0 0 10 57 179 0 0 0 0 0 0 0 0 15 51 220 215 15 0 0 16 16 0 2 37 41 328 340 366 407 466 560 501 505 538 626 599 416 424 298 347 127 242 265 208 79 64 83 86 54
468 459 488 471 430 409 376 321 271 268 242 222 213 144 0 0 0 0 0 0 0 0 0 0 0 0 0 0 0 0 1 0 0 0 0 0 0 0 0 0 0 0 0 0 0 0 0 0 0 0 0 0 0 0 0 0 0 0 0 5 13 31 153 348 342 364 437 497 515 506 560 556 491 360 353 226 250 162 213 248 123 65 84 96 80
415 407 425 420 380 336 298 268 238 206 57 0 0 0 0 0 0 0 0 0 0 0 0 0 0 0 0 0 3 1 0 0 0 0 0 0 0 0 0 0 0 0 0 0 0 0 0 0 0 1 0 0 0 0 0 0 0 0 0 0 0 8 0 0 0 0 0 373 384 456 402 482 438 494 403 341 254 256 191 252 197 89 100 104 113
393 413 389 370 318 267 226 213 84 0 0 0 0 0 0 0 0 0 0 0 0 0 0 0 0 0 0 0 0 0 0 0 0 0 0 0 0 0 0 0 0 0 0 0 0 0 0 0 0 1 0 0 0 0 0 0 0 0 0 0 0 0 0 0 0 7 0 18 318 350 452 436 467 480 522 475 305 347 280 248 262 144 71 109 142
447 447 399 321 260 91 0 0 0 0 0 0 0 0 0 0 0 0 0 0 0 0 0 0 0 0 0 0 0 0 0 0 0 0 2 0 0 0 0 0 0 0 0 0 0 0 0 0 0 0 0 0 0 0 0 0 0 0 0 0 1 0 0 0 0 0 0 3 0 28 325 378 365 424 508 576 459 364 336 309 252 151 39 95 170
471 362 272 247 150 0 0 0 0 0 0 0 0 0 0 0 0 0 0 0 0 0 0 0 0 0 0 0 0 0 0 0 0 0 0 0 0 0 0 0 0 0 0 0 0 0 0 0 0 0 0 0 0 0 0 0 0 0 0 0 0 0 0 0 1 1 0 0 0 23 50 181 349 481 521 519 586 529 422 341 294 221 117 45 98
381 294 278 226 0 0 0 0 0 0 0 0 0 0 0 0 0 0 0 0 0 0 0 0 0 0 0 0 0 0 0 0 0 0 0 0 0 0 0 0 0 0 0 0 0 0 0 0 0 0 0 0 0 0 0 0 0 0 0 1 0 0 0 0 0 0 1 0 4 0 0 0 237 327 443 444 475 549 631 560 404 287 236 169 64
325 334 276 13 0 0 0 0 0 0 0 0 0 0 0 0 0 0 0 0 0 0 0 0 0 0 0 0 0 0 0 0 0 0 0 0 0 0 0 0 0 0 0 0 0 0 0 0 0 0 0 0 0 0 0 0 0 0 0 2 1 0 0 0 0 1 3 2 2 0 0 0 0 0 204 346 362 438 529 640 591 485 385 265 246
225 140 105 0 0 0 0 0 0 0 0 0 0 0 0 0 0 0 0 0 0 0 0 0 0 0 0 0 0 0 0 0 0 0 0 0 0 0 0 0 0 0 0 0 0 0 0 0 0 0 0 0 0 0 0 0 0 0 0 0 0 0 0 0 0 0 2 3 4 0 0 0 0 0 0 199 241 333 388 500 502 561 448 302 254
31 0 0 0 0 0 0 0 0 0 0 0 0 0 0 0 0 0 0 0 0 0 0 0 0 0 0 0 0 0 0 0 0 0 0 0 0 0 0 0 0 0 0 0 0 0 0 0 0 0 0 0 0 0 0 0 0 0 1 0 0 0 0 0 0 0 0 1 1 6 0 0 0 0 24 180 208 222 354 418 461 484 538 454 208
0 0 0 0 0 0 0 0 0 0 0 0 0 0 0 0 0 0 0 0 0 0 0 0 0 0 0 0 0 0 0 0 0 0 0 0 0 0 0 0 0 0 0 0 0 0 0 0 0 0 0 0 0 0 0 0 0 0 2 1 0 0 0 0 0 0 0 0 0 0 3 11 0 0 0 0 134 185 251 379 404 434 519 557 414
0 0 0 0 0 0 0 0 0 0 0 0 0 0 0 0 0 0 0 0 0 0 0 0 0 0 0 0 0 0 0 0 0 0 0 0 0 0 0 0 0 0 0 0 0 0 0 0 0 0 0 0 0 0 0 0 0 0 2 0 0 0 0 0 1 0 0 0 0 0 0 0 0 0 0 0 0 213 249 285 362 392 378 518 570
0 0 0 0 0 0 0 0 0 0 0 0 0 0 0 0 0 0 0 0 0 0 0 0 0 0 0 0 0 0 0 0 0 0 0 0 0 0 0 0 0 0 0 0 0 0 0 0 0 0 0 0 0 0 0 0 0 0 0 0 0 0 0 0 0 0 0 0 0 0 0 0 0 0 0 0 0 0 0 112 315 369 375 433 489
149 125 0 0 0 0 0 0 0 0 0 0 0 0 0 0 0 0 0 0 0 0 0 0 0 0 0 0 0 0 0 0 0 0 0 0 0 0 0 0 1 0 1 0 0 0 0 0 0 0 0 0 0 0 0 0 0 0 0 0 0 0 0 0 0 0 0 0 0 0 0 0 0 0 0 0 0 0 0 0 142 225 242 237 324
154 28 0 0 0 0 0 0 0 0 0 0 0 0 0 0 0 0 0 0 0 0 0 0 0 0 0 0 0 0 0 0 0 0 0 0 0 0 0 0 2 0 1 1 0 0 0 0 0 0 0 0 0 0 0 0 0 0 0 0 0 0 0 0 0 0 0 0 0 0 0 0 0 0 0 0 0 0 0 0 0 118 101 151 188
7 0 0 0 0 0 0 0 0 0 0 0 0 0 0 0 0 0 0 0 0 0 0 0 0 0 0 0 0 0 0 0 0 0 0 0 0 0 0 0 0 0 0 0 0 0 0 0 0 0 0 0 0 0 0 0 0 0 0 0 0 0 0 0 0 0 0 0 0 0 0 0 0 0 0 0 0 0 0 0 0 0 0 101 142
0 0 0 0 0 0 0 0 0 0 0 0 0 0 0 0 0 0 0 0 0 0 0 0 0 0 0 0 0 0 0 0 0 0 0 0 0 0 0 0 0 0 0 0 0 0 0 0 0 0 0 0 0 0 0 0 0 0 0 0 0 0 0 0 0 0 0 0 0 0 0 0 0 0 0 0 0 0 0 0 0 0 0 0 81
0 0 0 0 0 0 0 0 0 0 0 0 0 0 0 0 0 0 0 0 0 0 0 0 0 0 0 0 0 0 0 0 0 0 0 0 0 0 0 0 0 0 0 0 0 0 0 0 0 0 0 0 0 0 0 0 0 0 0 0 0 0 0 0 0 0 0 0 0 0 0 0 0 0 0 0 0 0 0 0 0 0 0 0 0
0 0 0 0 0 0 0 0 0 0 0 0 0 0 0 0 0 0 0 0 0 0 0 0 0 0 0 0 0 0 0 0 0 0 0 0 0 0 0 0 0 0 0 0 0 0 0 0 0 0 0 0 0 0 0 0 0 0 0 0 0 0 0 0 0 0 0 0 0 0 0 0 0 0 0 0 0 0 0 0 0 0 0 0 0
0 0 0 0 0 0 0 0 0 0 0 0 0 0 0 0 0 0 0 0 0 0 0 0 0 0 0 0 0 0 0 0 0 0 0 0 0 0 0 0 0 0 0 0 0 0 0 0 0 0 0 0 0 0 0 0 0 0 0 0 0 0 0 0 0 0 0 0 0 0 0 0 0 0 0 0 0 0 0 0 0 0 0 0 0
0 0 0 0 0 0 0 0 0 0 0 0 0 0 0 0 0 0 0 0 0 0 0 0 0 0 0 0 0 0 0 0 0 0 0 0 0 0 0 0 0 0 0 0 0 0 0 0 0 0 0 0 0 0 0 0 0 0 0 0 0 0 0 0 0 0 0 0 0 0 0 0 0 0 0 0 0 0 0 0 0 0 0 0 0
0 0 0 0 0 0 0 0 0 0 0 0 0 0 0 0 0 0 0 0 0 0 0 0 0 0 0 0 0 0 0 0 0 0 0 0 0 0 0 0 0 0 0 0 0 0 0 0 0 0 0 0 0 0 0 0 0 0 0 0 0 0 0 0 0 0 0 0 0 0 0 0 0 0 0 0 0 0 0 0 0 0 0 0 0
0 0 0 0 0 0 0 0 0 0 0 0 0 0 0 0 0 0 0 0 0 0 0 0 0 0 0 0 0 0 0 0 0 0 0 0 0 0 0 0 0 0 0 0 0 0 0 0 0 0 0 0 0 0 0 0 0 0 0 0 0 0 0 0 0 0 0 0 0 0 0 0 0 0 0 0 0 0 0 0 0 0 0 0 0
0 0 0 0 0 0 0 0 0 0 0 0 0 0 0 0 0 0 0 0 0 0 0 0 0 0 0 0 0 0 0 0 0 0 0 0 0 0 0 0 0 0 0 0 0 0 0 0 0 0 0 0 0 0 0 0 0 0 0 1 0 0 0 1 0 0 0 0 0 0 0 0 0 0 0 0 0 0 0 0 0 0 0 0 0
0 0 0 0 0 0 0 0 0 0 0 0 0 0 0 0 0 0 0 0 0 0 0 0 0 0 0 0 0 0 0 0 0 0 0 0 0 0 0 0 0 0 0 0 0 0 0 0 0 0 0 0 0 0 0 0 0 0 0 0 0 2 2 2 1 0 0 0 0 0 0 0 0 0 0 0 0 0 0 0 0 0 0 0 0
0 0 0 0 0 0 0 0 0 0 0 0 0 0 0 0 0 0 0 0 0 0 0 0 0 0 0 0 0 0 0 0 0 0 0 0 0 0 0 0 0 0 0 0 0 0 0 0 0 0 0 0 0 0 0 0 0 0 0 0 0 0 3 2 0 0 0 0 0 0 0 0 0 0 0 0 0 0 0 0 0 0 0 0 0
0 0 0 0 0 0 0 0 0 0 0 0 0 0 0 0 0 0 0 0 0 0 0 0 0 0 0 0 0 0 0 0 0 0 0 0 0 0 0 0 0 0 0 0 0 0 0 0 0 0 0 0 0 0 0 0 0 0 0 0 0 0 0 2 0 1 0 0 0 0 0 0 0 0 0 0 0 0 0 0 0 0 0 0 0
0 0 0 0 0 0 0 0 0 0 0 0 0 0 0 0 0 0 0 0 0 0 0 0 0 0 0 0 0 0 0 0 0 0 0 0 0 0 0 0 0 0 0 0 0 0 0 0 0 0 0 0 0 0 0 0 0 0 0 0 0 0 1 2 0 0 0 0 0 2 0 0 0 0 0 0 0 0 0 0 0 0 0 0 0
0 0 0 0 0 0 0 0 0 0 0 0 0 0 0 0 0 0 0 0 0 0 0 0 0 0 0 0 0 0 0 0 0 0 0 0 0 0 0 0 0 0 0 0 0 0 0 0 0 0 0 0 0 0 0 0 0 0 0 0 0 2 3 5 2 2 0 0 2 2 0 0 0 0 0 0 0 0 0 0 0 0 0 0 0
0 0 0 0 0 0 0 0 0 0 0 0 0 0 0 0 0 0 0 0 0 0 0 0 0 0 0 0 0 0 0 0 0 0 0 0 0 0 0 0 0 0 0 0 0 0 0 0 0 0 0 0 0 0 0 0 0 0 0 0 0 2 6 6 6 2 0 0 2 2 4 0 0 0 0 0 0 0 0 0 0 0 0 0 0
0 0 0 0 0 0 0 0 0 0 0 0 0 0 0 0 0 0 0 0 0 0 0 0 0 0 0 0 0 0 0 0 0 0 0 0 0 0 0 0 0 0 0 0 0 0 0 0 0 0 0 0 0 0 0 0 0 0 0 0 0 1 8 7 2 1 1 2 4 5 3 0 0 0 0 0 0 0 0 0 0 0 0 0 0
0 0 0 0 0 0 0 0 0 0 0 0 0 0 0 0 0 0 0 0 0 0 0 0 0 0 0 0 0 0 0 0 0 0 0 0 0 0 0 0 0 0 0 0 0 0 0 0 0 0 0 0 0 0 0 0 0 0 0 0 0 4 13 1 3 2 2 2 2 2 1 0 0 0 2 2 0 1 0 0 0 0 0 0 0
0 0 0 0 0 0 0 0 0 0 0 0 0 0 0 0 0 0 0 0 0 0 0 0 0 0 0 0 0 0 0 0 0 0 0 0 0 0 0 0 0 0 0 0 0 0 0 0 0 0 0 0 0 0 0 0 0 0 0 0 1 7 5 2 3 2 4 0 0 0 0 1 0 0 1 1 2 1 0 0 0 0 0 0 0
0 0 0 0 0 0 0 0 0 0 0 0 0 0 0 0 0 0 0 0 0 0 0 0 0 0 0 0 0 0 0 0 0 0 0 0 0 0 0 0 0 0 0 0 0 0 0 0 0 0 0 0 0 0 0 0 0 0 0 0 2 5 2 2 1 2 3 0 0 0 0 0 0 0 0 0 1 5 1 0 0 0 0 0 0
0 0 0 0 0 0 0 0 0 0 0 0 0 0 0 0 0 0 0 0 0 0 0 0 0 0 0 0 0 0 0 0 0 0 0 0 0 0 0 0 0 0 0 0 0 0 0 0 0 0 0 0 0 0 0 0 0 0 0 0 3 4 1 2 2 0 0 0 0 0 0 0 0 0 0 1 0 0 0 0 0 0 0 0 0
0 0 0 0 0 0 0 0 0 0 0 0 0 0 0 0 0 0 0 0 0 0 0 0 0 0 0 0 0 0 0 0 0 0 0 0 0 0 0 0 0 0 0 0 0 0 0 0 0 0 0 0 0 0 0 0 0 0 0 0 0 4 1 1 0 0 0 0 0 0 0 0 0 0 2 2 2 0 0 0 0 0 0 0 0
Wind_Speed
13 12 14 13 11 10 9 7 7 5 5 6 7 5 5 7 8 8 8 8 8 8 9 10 11 13 13 11 10 10 10 11 13 nan nan nan nan 16 19 22 22 22 24 24 22 22 21 20 15 13 12 11 17 20 19 20 20 23 24 21 nan nan nan nan nan nan nan nan nan nan nan nan nan nan nan nan nan 13 13 12 11 10 11 12 13
14 15 15 14 13 11 11 9 7 5 5 4 5 5 5 5 5 6 7 7 7 8 9 10 12 13 13 13 13 12 11 12 13 13 13 15 16 16 17 19 21 22 21 21 21 21 19 20 21 17 11 11 9 11 16 16 18 21 24 22 21 nan nan nan nan nan nan nan nan nan nan nan nan nan nan nan nan nan 13 12 11 10 11 13 14
16 15 15 14 13 12 12 11 9 6 5 5 5 6 6 7 7 8 8 9 9 10 10 9 9 10 12 11 10 11 12 14 15 14 14 14 15 16 16 16 17 18 19 18 18 18 17 18 18 21 21 15 13 11 14 15 16 19 21 23 22 21 20 nan nan nan nan nan nan nan nan nan nan nan nan nan nan nan nan 12 10 11 11 13 15
16 16 16 14 13 14 12 12 10 7 7 7 7 6 7 7 7 7 7 8 7 8 10 10 8 9 11 11 11 10 10 10 13 15 15 15 15 15 16 16 14 15 16 16 16 16 16 15 15 16 17 17 17 15 14 14 9 7 15 21 22 22 20 19 nan nan nan nan nan nan nan nan nan nan nan nan nan nan nan 12 10 11 10 13 14
17 18 17 15 15 14 13 12 11 8 8 8 9 8 8 8 7 8 10 10 10 10 11 12 11 10 11 12 13 13 12 12 12 13 14 15 16 16 16 17 17 15 13 13 14 14 13 11 12 14 18 19 19 17 13 12 16 16 13 14 21 23 22 20 18 nan nan nan nan nan nan nan nan nan nan nan nan nan nan nan 11 11 10 10 13
20 19 18 18 16 15 15 14 12 11 11 11 13 11 11 11 9 10 10 11 11 12 13 13 11 12 13 13 14 14 14 14 14 14 15 14 15 16 17 18 18 18 18 15 13 12 11 12 11 11 12 14 15 15 21 16 11 11 12 14 15 20 22 22 20 19 nan nan nan nan nan nan nan nan nan nan nan nan nan nan 12 11 11 10 11
20 20 19 19 17 16 17 16 15 14 15 14 15 14 14 13 11 11 11 12 12 14 15 15 14 13 13 14 14 14 15 15 17 17 17 17 18 18 18 19 19 19 19 19 17 13 12 11 10 9 10 11 12 13 11 11 11 15 18 14 12 15 20 22 22 20 nan nan nan nan nan nan nan nan nan nan nan nan nan nan 12 12 12 10 10
21 20 21 20 18 18 18 17 17 16 17 16 16 15 13 14 12 12 13 12 13 13 15 15 15 14 14 14 14 16 15 16 18 18 18 19 20 20 19 19 19 20 20 20 20 18 14 13 11 10 9 9 10 11 17 15 12 11 11 14 15 14 13 17 18 19 18 18 16 nan nan nan 12 11 nan nan nan nan nan nan 11 13 13 12 nan
21 20 21 20 19 20 19 18 18 18 17 16 16 14 14 13 13 12 13 14 14 14 15 16 14 14 14 15 15 17 17 17 19 19 20 22 22 22 21 21 22 21 22 22 21 21 19 15 13 12 11 10 10 10 9 12 16 14 12 13 13 8 12 17 18 19 19 18 nan 16 nan 15 13 11 10 nan nan nan nan nan nan 12 13 14 nan
21 21 22 22 21 21 21 19 18 18 18 16 15 14 14 14 14 13 14 16 16 16 16 15 15 14 14 15 16 19 19 20 21 23 25 25 25 25 24 25 25 24 24 24 24 23 23 19 17 15 14 13 13 12 11 10 12 12 9 10 11 14 9 14 16 18 20 19 19 17 nan 16 16 13 10 11 nan nan nan nan nan nan 13 14 13
21 22 23 23 23 22 22 20 19 19 19 17 16 14 15 14 14 14 15 18 18 18 17 16 16 17 17 17 19 21 21 24 26 27 28 28 28 27 28 28 28 28 27 27 27 26 25 24 23 22 20 16 15 15 13 12 11 12 14 12 10 8 11 9 15 17 17 18 20 18 17 16 18 16 13 10 11 nan nan nan nan nan 12 14 14
21 22 24 24 23 22 22 21 20 20 20 19 16 15 15 14 14 13 15 17 19 19 20 19 18 nan nan nan 21 23 25 nan 28 29 29 29 29 29 29 28 29 29 29 28 28 28 27 26 24 23 22 21 21 20 20 20 18 15 16 18 15 9 5 8 9 12 13 13 14 17 17 19 18 18 16 13 11 12 nan nan nan nan 12 14 14
23 24 24 23 22 21 22 21 19 20 20 17 16 17 16 14 13 13 17 21 21 20 20 nan nan nan nan nan nan 24 26 27 30 29 29 29 29 30 28 29 29 29 28 29 29 29 28 27 26 25 25 25 26 28 30 30 28 25 23 22 22 21 14 7 6 8 12 14 16 19 17 20 20 20 19 16 14 12 nan nan nan nan nan nan 15
22 22 22 21 22 22 21 20 19 20 18 17 19 19 17 16 13 16 17 23 24 nan nan nan nan nan nan nan nan nan 26 27 31 29 28 29 30 31 29 30 29 28 28 29 30 30 29 28 28 29 29 29 28 29 nan nan 33 39 42 39 36 35 33 28 17 11 9 11 19 20 19 19 20 21 19 17 15 14 12 nan nan nan nan nan nan
19 20 20 21 21 21 20 20 19 18 20 21 20 20 17 nan nan nan nan nan nan nan nan nan nan nan nan nan nan nan 23 25 26 29 27 29 nan 31 30 30 30 nan nan 30 31 31 30 30 31 32 32 31 30 30 30 31 nan nan nan 40 37 37 38 38 38 29 19 7 9 15 17 19 17 20 20 20 18 16 14 14 nan nan nan nan nan
20 20 20 21 21 21 20 21 20 20 21 21 21 19 nan nan nan nan nan nan nan nan nan nan nan nan nan nan nan nan nan nan nan nan nan nan nan nan nan 30 nan nan nan nan nan nan nan nan nan nan 34 33 nan nan nan nan nan nan nan nan nan 39 40 41 39 35 31 29 18 10 14 19 19 18 20 21 19 19 19 16 nan nan nan nan nan
21 21 21 21 21 21 22 22 22 21 21 22 21 19 nan nan nan nan nan nan nan nan nan nan nan nan nan nan nan nan nan nan nan nan nan nan nan nan nan nan nan nan nan nan nan nan nan nan nan nan nan nan nan nan nan nan nan nan nan nan nan nan 41 41 38 36 35 38 37 30 14 16 21 21 21 20 17 19 18 17 15 nan nan nan nan
22 22 21 21 23 23 22 22 21 21 nan nan nan nan nan nan nan nan nan nan nan nan nan nan nan nan nan nan nan nan nan nan nan nan nan nan nan nan nan nan nan nan nan nan nan nan nan nan nan nan nan nan nan nan nan nan nan nan nan nan nan nan nan nan nan nan nan 39 39 37 34 15 20 23 22 20 19 17 17 18 16 nan nan 17 18
22 21 22 23 23 23 22 21 nan nan nan nan nan nan nan nan nan nan nan nan nan nan nan nan nan nan nan nan nan nan nan nan nan nan nan nan nan nan nan nan nan nan nan nan nan nan nan nan nan nan nan nan nan nan nan nan nan nan nan nan nan nan nan nan nan nan nan nan 39 37 36 37 20 18 21 19 20 19 17 19 20 17 nan 19 18
20 21 22 22 22 nan nan nan nan nan nan nan nan nan nan nan nan nan nan nan nan nan nan nan nan nan nan nan nan nan nan nan nan nan nan nan nan nan nan nan nan nan nan nan nan nan nan nan nan nan nan nan nan nan nan nan nan nan nan nan nan nan nan nan nan nan nan nan nan nan 36 35 35 27 13 19 19 19 18 20 24 22 nan nan 20
20 21 21 22 23 nan nan nan nan nan nan nan nan nan nan nan nan nan nan nan nan nan nan nan nan nan nan nan nan nan nan nan nan nan nan nan nan nan nan nan nan nan nan nan nan nan nan nan nan nan nan nan nan nan nan nan nan nan nan nan nan nan nan nan nan nan nan nan nan nan nan 35 36 35 35 20 14 20 19 20 24 25 21 nan nan
20 21 22 22 nan nan nan nan nan nan nan nan nan nan nan nan nan nan nan nan nan nan nan nan nan nan nan nan nan nan nan nan nan nan nan nan nan nan nan nan nan nan nan nan nan nan nan nan nan nan nan nan nan nan nan nan nan nan nan nan nan nan nan nan nan nan nan nan nan nan nan nan 37 39 37 34 29 13 20 20 22 22 22 21 nan
20 21 22 nan nan nan nan nan nan nan nan nan nan nan nan nan nan nan nan nan nan nan nan nan nan nan nan nan nan nan nan nan nan nan nan nan nan nan nan nan nan nan nan nan nan nan nan nan nan nan nan nan nan nan nan nan nan nan nan nan nan nan nan nan nan nan nan nan nan nan nan nan nan nan 41 40 34 34 19 19 21 20 20 19 21
20 21 22 nan nan nan nan nan nan nan nan nan nan nan nan nan nan nan nan nan nan nan nan nan nan nan nan nan nan nan nan nan nan nan nan nan nan nan nan nan nan nan nan nan nan nan nan nan nan nan nan nan nan nan nan nan nan nan nan nan nan nan nan nan nan nan nan nan nan nan nan nan nan nan nan 42 41 36 34 23 15 18 20 19 18
nan nan nan nan nan nan nan nan nan nan nan nan nan nan nan nan nan nan nan nan nan nan nan nan nan nan nan nan nan nan nan nan nan nan nan nan nan nan nan nan nan nan nan nan nan nan nan nan nan nan nan nan nan nan nan nan nan nan nan nan nan nan nan nan nan nan nan nan nan nan nan nan nan nan nan 44 43 41 37 35 28 16 20 21 19
nan nan nan nan nan nan nan nan nan nan nan nan nan nan nan nan nan nan nan nan nan nan nan nan nan nan nan nan nan nan nan nan nan nan nan nan nan nan nan nan nan nan nan nan nan nan nan nan nan nan nan nan nan nan nan nan nan nan nan nan nan nan nan nan nan nan nan nan nan nan nan nan nan nan nan nan 43 42 39 35 32 27 17 21 24
nan nan nan nan nan nan nan nan nan nan nan nan nan nan nan nan nan nan nan nan nan nan nan nan nan nan nan nan nan nan nan nan nan nan nan nan nan nan nan nan nan nan nan nan nan nan nan nan nan nan nan nan nan nan nan nan nan nan nan nan nan nan nan nan nan nan nan nan nan nan nan nan nan nan nan nan nan 42 43 41 39 31 23 17 23
nan nan nan nan nan nan nan nan nan nan nan nan nan nan nan nan nan nan nan nan nan nan nan nan nan nan nan nan nan nan nan nan nan nan nan nan nan nan nan nan nan nan nan nan nan nan nan nan nan nan nan nan nan nan nan nan nan nan nan nan nan nan nan nan nan nan nan nan nan nan nan nan nan nan nan nan nan nan nan 44 40 37 30 20 18
25 24 nan nan nan nan nan nan nan nan nan nan nan nan nan nan nan nan nan nan nan nan nan nan nan nan nan nan nan nan nan nan nan nan nan nan nan nan nan nan nan nan nan nan nan nan nan nan nan nan nan nan nan nan nan nan nan nan nan nan nan nan nan nan nan nan nan nan nan nan nan nan nan nan nan nan nan nan nan nan 44 41 38 28 18
24 nan nan nan nan nan nan nan nan nan nan nan nan nan nan nan nan nan nan nan nan nan nan nan nan nan nan nan nan nan nan nan nan nan nan nan nan nan nan nan nan nan nan nan nan nan nan nan nan nan nan nan nan nan nan nan nan nan nan nan nan nan nan nan nan nan nan nan nan nan nan nan nan nan nan nan nan nan nan nan nan 44 42 41 29
nan nan nan nan nan nan nan nan nan nan nan nan nan nan nan nan nan nan nan nan nan nan nan nan nan nan nan nan nan nan nan nan nan nan nan nan nan nan nan nan nan nan nan nan nan nan nan nan nan nan nan nan nan nan nan nan nan nan nan nan nan nan nan nan nan nan nan nan nan nan nan nan nan nan nan nan nan nan nan nan nan nan nan 43 41
nan nan nan nan nan nan nan nan nan nan nan nan nan nan nan nan nan nan nan nan nan nan nan nan nan nan nan nan nan nan nan nan nan nan nan nan nan nan nan nan nan nan nan nan nan nan nan nan nan nan nan nan nan nan nan nan nan nan nan nan nan nan nan nan nan nan nan nan nan nan nan nan nan nan nan nan nan nan nan nan nan nan nan nan nan
nan nan nan nan nan nan nan nan nan nan nan nan nan nan nan nan nan nan nan nan nan nan nan nan nan nan nan nan nan nan nan nan nan nan nan nan nan nan nan nan nan nan nan nan nan nan nan nan nan nan nan nan nan nan nan nan nan nan nan nan nan nan nan nan nan nan nan nan nan nan nan nan nan nan nan nan nan nan nan nan nan nan nan nan nan
nan nan nan nan nan nan nan nan nan nan nan nan nan nan nan nan nan nan nan nan nan nan nan nan nan nan nan nan nan nan nan nan nan nan nan nan nan nan nan nan nan nan nan nan nan nan nan nan nan nan nan nan nan nan nan nan nan nan nan nan nan nan nan nan nan nan nan nan nan nan nan nan nan nan nan nan nan nan nan nan nan nan nan nan nan
nan nan nan nan nan nan nan nan nan nan nan nan nan nan nan nan nan nan nan nan nan nan nan nan nan nan nan nan nan nan nan nan nan nan nan nan nan nan nan nan nan nan nan nan nan nan nan nan nan nan nan nan nan nan nan nan nan nan nan nan nan nan nan nan nan nan nan nan nan nan nan nan nan nan nan nan nan nan nan nan nan nan nan nan nan
nan nan nan nan nan nan nan nan nan nan nan nan nan nan nan nan nan nan nan nan nan nan nan nan nan nan nan nan nan nan nan nan nan nan nan nan nan nan nan nan nan nan nan nan nan nan nan nan nan nan nan nan nan nan nan nan nan nan nan nan nan nan nan nan nan nan nan nan nan nan nan nan nan nan nan nan nan nan nan nan nan nan nan nan nan
nan nan nan nan nan nan nan nan nan nan nan nan nan nan nan nan nan nan nan nan nan nan nan nan nan nan nan nan nan nan nan nan nan nan nan nan nan nan nan nan nan nan nan nan nan nan nan nan nan nan nan nan nan nan nan nan nan nan nan nan nan nan nan nan nan nan nan nan nan nan nan nan nan nan nan nan nan nan nan nan nan nan nan nan nan
nan nan nan nan nan nan nan nan nan nan nan nan nan nan nan nan nan nan nan nan nan nan nan nan nan nan nan nan nan nan nan nan nan nan nan nan nan nan nan nan nan nan nan nan nan nan nan nan nan nan nan nan nan nan nan nan nan nan nan nan nan nan nan nan nan nan nan nan nan nan nan nan nan nan nan nan nan nan nan nan nan nan nan nan nan
nan nan nan nan nan nan nan nan nan nan nan nan nan nan nan nan nan nan nan nan nan nan nan nan nan nan nan nan nan nan nan nan nan nan nan nan nan nan nan nan nan nan nan nan nan nan nan nan nan nan nan nan nan nan nan nan nan nan nan nan nan nan nan nan nan nan nan nan nan nan nan nan nan nan nan nan nan nan nan nan nan nan nan nan nan
nan nan nan nan nan nan nan nan nan nan nan nan nan nan nan nan nan nan nan nan nan nan nan nan nan nan nan nan nan nan nan nan nan nan nan nan nan nan nan nan nan nan nan nan nan nan nan nan nan nan nan nan nan nan nan nan nan nan nan nan nan nan nan nan nan nan nan nan nan nan nan nan nan nan nan nan nan nan nan nan nan nan nan nan nan
nan nan nan nan nan nan nan nan nan nan nan nan nan nan nan nan nan nan nan nan nan nan nan nan nan nan nan nan nan nan nan nan nan nan nan nan nan nan nan nan nan nan nan nan nan nan nan nan nan nan nan nan nan nan nan nan nan nan nan nan nan nan nan nan nan nan nan nan nan nan nan nan nan nan nan nan nan nan nan nan nan nan nan nan nan
nan nan nan nan nan nan nan nan nan nan nan nan nan nan nan nan nan nan nan nan nan nan nan nan nan nan nan nan nan nan nan nan nan nan nan nan nan nan nan nan nan nan nan nan nan nan nan nan nan nan nan nan nan nan nan nan nan nan nan nan nan nan nan nan nan nan nan nan nan nan nan nan nan nan nan nan nan nan nan nan nan nan nan nan nan
nan nan nan nan nan nan nan nan nan nan nan nan nan nan nan nan nan nan nan nan nan nan nan nan nan nan nan nan nan nan nan nan nan nan nan nan nan nan nan nan nan nan nan nan nan nan nan nan nan nan nan nan nan nan nan nan nan nan nan nan nan nan nan nan nan nan nan nan nan nan nan nan nan nan nan nan nan nan nan nan nan nan nan nan nan
nan nan nan nan nan nan nan nan nan nan nan nan nan nan nan nan nan nan nan nan nan nan nan nan nan nan nan nan nan nan nan nan nan nan nan nan nan nan nan nan nan nan nan nan nan nan nan nan nan nan nan nan nan nan nan nan nan nan nan nan nan nan nan nan nan nan nan nan nan nan nan nan nan nan nan nan nan nan nan nan nan nan nan nan nan
nan nan nan nan nan nan nan nan nan nan nan nan nan nan nan nan nan nan nan nan nan nan nan nan nan nan nan nan nan nan nan nan nan nan nan nan nan nan nan nan nan nan nan nan nan nan nan nan nan nan nan nan nan nan nan nan nan nan nan nan nan nan nan nan nan nan nan nan nan nan nan nan nan nan nan nan nan nan nan nan nan nan nan nan nan
nan nan nan nan nan nan nan nan nan nan nan nan nan nan nan nan nan nan nan nan nan nan nan nan nan nan nan nan nan nan nan nan nan nan nan nan nan nan nan nan nan nan nan nan nan nan nan nan nan nan nan nan nan nan nan nan nan nan nan nan nan nan nan nan nan nan nan nan nan nan nan nan nan nan nan nan nan nan nan nan nan nan nan nan nan
nan nan nan nan nan nan nan nan nan nan nan nan nan nan nan nan nan nan nan nan nan nan nan nan nan nan nan nan nan nan nan nan nan nan nan nan nan nan nan nan nan nan nan nan nan nan nan nan nan nan nan nan nan nan nan nan nan nan nan nan nan nan nan nan nan nan nan nan nan nan nan nan nan nan nan nan nan nan nan nan nan nan nan nan nan
nan nan nan nan nan nan nan nan nan nan nan nan nan nan nan nan nan nan nan nan nan nan nan nan nan nan nan nan nan nan nan nan nan nan nan nan nan nan nan nan nan nan nan nan nan nan nan nan nan nan nan nan nan nan nan nan nan nan nan nan nan nan nan nan nan nan nan nan nan nan nan nan nan nan nan nan nan nan nan nan nan nan nan nan nan
nan nan nan nan nan nan nan nan nan nan nan nan nan nan nan nan nan nan nan nan nan nan nan nan nan nan nan nan nan nan nan nan nan nan nan nan nan nan nan nan nan nan nan nan nan nan nan nan nan nan nan nan nan nan nan nan nan nan nan nan nan nan nan nan nan nan nan nan nan nan nan nan nan nan nan nan nan nan nan nan nan nan nan nan nan
nan nan nan nan nan nan nan nan nan nan nan nan nan nan nan nan nan nan nan nan nan nan nan nan nan nan nan nan nan nan nan nan nan nan nan nan nan nan nan nan nan nan nan nan nan nan nan nan nan nan nan nan nan nan nan nan nan nan nan nan nan nan nan nan nan nan nan nan nan nan nan nan nan nan nan nan nan nan nan nan nan nan nan nan nan
nan nan nan nan nan nan nan nan nan nan nan nan nan nan nan nan nan nan nan nan nan nan nan nan nan nan nan nan nan nan nan nan nan nan nan nan nan nan nan nan nan nan nan nan nan nan nan nan nan nan nan nan nan nan nan nan nan nan nan nan nan nan nan nan nan nan nan nan nan nan nan nan nan nan nan nan nan nan nan nan nan nan nan nan nan
Wind_Direction
296 297 294 307 311 316 316 315 317 330 322 335 334 345 343 338 341 344 336 333 328 332 334 335 336 336 339 340 340 341 341 340 347 nan nan nan nan 346 357 357 359 1 8 9 9 9 3 355 348 342 338 338 344 338 335 336 332 329 334 332 nan nan nan nan nan nan nan nan nan nan nan nan nan nan nan nan nan 277 270 265 262 263 262 262 261
294 285 288 297 303 310 313 313 312 309 308 337 341 342 1 348 347 349 344 338 330 334 326 329 329 331 332 333 336 339 340 337 336 337 337 338 341 340 351 355 359 3 6 7 9 10 6 357 350 337 340 338 328 333 335 331 334 335 337 338 333 nan nan nan nan nan nan nan nan nan nan nan nan nan nan nan nan nan 269 270 271 273 266 262 259
286 279 281 293 302 308 311 306 303 309 322 348 335 349 355 1 359 351 348 342 339 332 326 324 319 318 317 318 328 330 334 333 335 336 335 337 333 332 333 346 354 0 3 3 6 8 6 2 359 341 340 346 338 325 333 328 339 342 338 337 335 331 329 nan nan nan nan nan nan nan nan nan nan nan nan nan nan nan nan 270 271 272 272 269 259
282 278 285 295 301 302 300 298 295 304 317 326 333 338 346 347 344 345 345 333 332 324 325 317 311 309 307 309 316 316 320 321 326 329 330 328 327 325 326 326 334 348 352 357 359 1 5 8 2 348 334 344 339 340 339 335 324 331 339 336 335 330 330 325 nan nan nan nan nan nan nan nan nan nan nan nan nan nan nan 269 271 275 277 274 261
279 281 283 284 284 283 281 286 285 279 280 289 301 308 313 312 318 327 327 322 320 314 313 310 303 297 299 304 310 315 318 315 318 315 317 317 318 320 321 316 316 320 328 341 348 352 355 357 0 353 349 346 345 347 343 338 340 354 342 339 336 332 331 330 326 nan nan nan nan nan nan nan nan nan nan nan nan nan nan nan 274 275 279 276 265
276 275 277 277 277 278 281 277 269 272 276 286 291 289 290 289 299 307 305 307 302 304 295 291 294 298 296 302 303 310 310 310 310 310 307 307 309 308 308 307 308 310 312 317 323 329 337 343 351 350 344 338 339 347 335 336 343 324 331 340 337 336 334 333 331 325 nan nan nan nan nan nan nan nan nan nan nan nan nan nan 273 275 278 275 268
271 275 271 271 272 277 278 273 262 270 277 276 280 281 284 290 297 295 303 295 299 297 294 296 295 292 296 298 301 302 302 303 304 305 304 305 302 303 302 303 304 306 307 306 307 307 309 315 326 333 334 334 341 321 301 316 320 337 340 338 328 338 342 334 330 327 nan nan nan nan nan nan nan nan nan nan nan nan nan nan 275 279 273 273 269
267 268 267 265 270 273 273 266 262 268 267 267 269 269 285 288 290 295 289 288 289 286 289 285 289 292 297 298 301 302 299 297 295 295 298 301 299 298 297 296 296 299 299 300 299 299 296 297 301 305 310 315 319 318 319 319 320 330 340 345 347 335 334 332 325 320 324 317 312 nan nan nan 292 289 nan nan nan nan nan nan 275 282 275 272 nan
263 261 264 264 264 267 264 260 261 261 261 263 266 270 280 284 282 283 291 292 285 283 279 282 284 290 295 297 296 293 290 292 292 293 296 293 293 293 294 294 296 294 295 296 295 294 291 286 282 282 279 281 285 292 293 309 321 335 342 340 335 309 317 323 332 329 328 324 nan 314 nan 300 293 289 281 nan nan nan nan nan nan 278 275 272 nan
260 256 256 259 261 264 260 255 257 256 256 259 263 269 272 278 281 279 282 284 280 277 278 282 288 291 293 295 292 291 293 293 292 295 290 288 287 288 291 293 292 290 293 293 292 290 289 281 266 270 269 276 282 284 292 290 307 317 307 310 326 324 319 333 325 333 336 333 325 316 nan 294 292 288 280 276 nan nan nan nan nan nan 276 270 272
256 252 251 252 255 257 255 253 255 255 257 259 258 261 267 268 275 281 285 284 285 284 286 292 293 297 299 299 298 296 298 296 293 290 289 289 288 290 290 287 288 287 285 285 286 286 284 286 287 286 284 270 274 272 275 277 277 280 293 292 287 313 326 314 338 332 334 338 324 314 302 291 289 291 282 275 275 nan nan nan nan nan 277 272 268
250 248 250 252 253 250 250 250 253 256 258 258 257 260 262 266 268 280 282 281 277 277 279 284 292 nan nan nan 303 302 301 nan 293 292 291 289 291 290 287 289 287 287 285 284 283 283 283 284 284 283 282 270 254 255 255 257 261 260 261 264 270 267 281 319 323 328 332 325 318 312 301 300 294 291 289 280 276 274 nan nan nan nan 278 276 272
244 247 248 249 247 245 249 252 253 256 259 262 265 262 261 270 282 280 280 278 273 273 274 nan nan nan nan nan nan 303 304 299 291 287 288 291 291 288 288 286 286 286 287 287 284 283 284 283 283 283 278 276 268 252 248 249 248 246 247 250 248 250 259 271 295 317 318 324 323 328 316 302 298 288 283 282 272 273 nan nan nan nan nan nan 275
245 245 243 242 243 244 248 253 254 257 263 264 260 259 261 266 282 284 281 279 278 nan nan nan nan nan nan nan nan nan 300 295 290 283 288 289 289 288 287 286 284 286 286 285 283 282 283 284 285 280 277 273 269 267 nan nan 257 246 248 245 242 243 238 234 238 250 285 329 338 339 318 317 307 292 290 284 273 268 271 nan nan nan nan nan nan
238 240 239 237 242 246 250 253 253 258 259 256 259 261 267 nan nan nan nan nan nan nan nan nan nan nan nan nan nan nan 292 286 294 286 290 288 nan 285 286 285 284 nan nan 283 282 282 283 284 284 280 276 273 271 268 266 261 nan nan nan 246 243 242 242 241 240 237 237 265 332 333 323 313 300 297 304 294 281 270 269 271 nan nan nan nan nan
231 236 238 241 245 249 252 253 254 254 259 263 264 269 nan nan nan nan nan nan nan nan nan nan nan nan nan nan nan nan nan nan nan nan nan nan nan nan nan 282 nan nan nan nan nan nan nan nan nan nan 276 273 nan nan nan nan nan nan nan nan nan 242 242 242 241 237 231 228 240 308 321 319 318 308 303 294 269 258 258 263 nan nan nan nan nan
235 238 242 246 247 248 251 253 255 255 262 267 272 278 nan nan nan nan nan nan nan nan nan nan nan nan nan nan nan nan nan nan nan nan nan nan nan nan nan nan nan nan nan nan nan nan nan nan nan nan nan nan nan nan nan nan nan nan nan nan nan nan 243 243 241 238 237 233 228 231 274 330 325 312 306 301 281 266 259 264 270 nan nan nan nan
236 239 244 248 248 248 251 255 259 262 nan nan nan nan nan nan nan nan nan nan nan nan nan nan nan nan nan nan nan nan nan nan nan nan nan nan nan nan nan nan nan nan nan nan nan nan nan nan nan nan nan nan nan nan nan nan nan nan nan nan nan nan nan nan nan nan nan 237 235 233 235 277 317 307 318 313 305 279 268 268 277 nan nan 270 267
233 239 244 247 249 252 258 263 nan nan nan nan nan nan nan nan nan nan nan nan nan nan nan nan nan nan nan nan nan nan nan nan nan nan nan nan nan nan nan nan nan nan nan nan nan nan nan nan nan nan nan nan nan nan nan nan nan nan nan nan nan nan nan nan nan nan nan nan 237 233 234 235 253 314 318 321 316 304 282 276 280 284 nan 273 271
235 238 242 248 253 nan nan nan nan nan nan nan nan nan nan nan nan nan nan nan nan nan nan nan nan nan nan nan nan nan nan nan nan nan nan nan nan nan nan nan nan nan nan nan nan nan nan nan nan nan nan nan nan nan nan nan nan nan nan nan nan nan nan nan nan nan nan nan nan nan 231 235 234 238 297 326 320 315 299 287 279 281 nan nan 275
235 240 242 248 254 nan nan nan nan nan nan nan nan nan nan nan nan nan nan nan nan nan nan nan nan nan nan nan nan nan nan nan nan nan nan nan nan nan nan nan nan nan nan nan nan nan nan nan nan nan nan nan nan nan nan nan nan nan nan nan nan nan nan nan nan nan nan nan nan nan nan 232 234 235 233 250 307 309 304 293 287 281 282 nan nan
235 239 244 247 nan nan nan nan nan nan nan nan nan nan nan nan nan nan nan nan nan nan nan nan nan nan nan nan nan nan nan nan nan nan nan nan nan nan nan nan nan nan nan nan nan nan nan nan nan nan nan nan nan nan nan nan nan nan nan nan nan nan nan nan nan nan nan nan nan nan nan nan 230 233 234 232 233 272 310 306 297 289 281 280 nan
239 241 246 nan nan nan nan nan nan nan nan nan nan nan nan nan nan nan nan nan nan nan nan nan nan nan nan nan nan nan nan nan nan nan nan nan nan nan nan nan nan nan nan nan nan nan nan nan nan nan nan nan nan nan nan nan nan nan nan nan nan nan nan nan nan nan nan nan nan nan nan nan nan nan 232 232 230 227 243 321 316 313 297 286 283
244 248 250 nan nan nan nan nan nan nan nan nan nan nan nan nan nan nan nan nan nan nan nan nan nan nan nan nan nan nan nan nan nan nan nan nan nan nan nan nan nan nan nan nan nan nan nan nan nan nan nan nan nan nan nan nan nan nan nan nan nan nan nan nan nan nan nan nan nan nan nan nan nan nan nan 228 229 227 225 232 313 315 309 300 289
nan nan nan nan nan nan nan nan nan nan nan nan nan nan nan nan nan nan nan nan nan nan nan nan nan nan nan nan nan nan nan nan nan nan nan nan nan nan nan nan nan nan nan nan nan nan nan nan nan nan nan nan nan nan nan nan nan nan nan nan nan nan nan nan nan nan nan nan nan nan nan nan nan nan nan 223 225 227 226 227 235 294 296 295 299
nan nan nan nan nan nan nan nan nan nan nan nan nan nan nan nan nan nan nan nan nan nan nan nan nan nan nan nan nan nan nan nan nan nan nan nan nan nan nan nan nan nan nan nan nan nan nan nan nan nan nan nan nan nan nan nan nan nan nan nan nan nan nan nan nan nan nan nan nan nan nan nan nan nan nan nan 225 228 230 230 235 238 269 287 299
nan nan nan nan nan nan nan nan nan nan nan nan nan nan nan nan nan nan nan nan nan nan nan nan nan nan nan nan nan nan nan nan nan nan nan nan nan nan nan nan nan nan nan nan nan nan nan nan nan nan nan nan nan nan nan nan nan nan nan nan nan nan nan nan nan nan nan nan nan nan nan nan nan nan nan nan nan 230 228 225 222 228 240 271 291
nan nan nan nan nan nan nan nan nan nan nan nan nan nan nan nan nan nan nan nan nan nan nan nan nan nan nan nan nan nan nan nan nan nan nan nan nan nan nan nan nan nan nan nan nan nan nan nan nan nan nan nan nan nan nan nan nan nan nan nan nan nan nan nan nan nan nan nan nan nan nan nan nan nan nan nan nan nan nan 224 221 222 228 253 286
269 270 nan nan nan nan nan nan nan nan nan nan nan nan nan nan nan nan nan nan nan nan nan nan nan nan nan nan nan nan nan nan nan nan nan nan nan nan nan nan nan nan nan nan nan nan nan nan nan nan nan nan nan nan nan nan nan nan nan nan nan nan nan nan nan nan nan nan nan nan nan nan nan nan nan nan nan nan nan nan 224 223 224 232 253
272 nan nan nan nan nan nan nan nan nan nan nan nan nan nan nan nan nan nan nan nan nan nan nan nan nan nan nan nan nan nan nan nan nan nan nan nan nan nan nan nan nan nan nan nan nan nan nan nan nan nan nan nan nan nan nan nan nan nan nan nan nan nan nan nan nan nan nan nan nan nan nan nan nan nan nan nan nan nan nan nan 223 223 221 224
nan nan nan nan nan nan nan nan nan nan nan nan nan nan nan nan nan nan nan nan nan nan nan nan nan nan nan nan nan nan nan nan nan nan nan nan nan nan nan nan nan nan nan nan nan nan nan nan nan nan nan nan nan nan nan nan nan nan nan nan nan nan nan nan nan nan nan nan nan nan nan nan nan nan nan nan nan nan nan nan nan nan nan 220 219
nan nan nan nan nan nan nan nan nan nan nan nan nan nan nan nan nan nan nan nan nan nan nan nan nan nan nan nan nan nan nan nan nan nan nan nan nan nan nan nan nan nan nan nan nan nan nan nan nan nan nan nan nan nan nan nan nan nan nan nan nan nan nan nan nan nan nan nan nan nan nan nan nan nan nan nan nan nan nan nan nan nan nan nan nan
nan nan nan nan nan nan nan nan nan nan nan nan nan nan nan nan nan nan nan nan nan nan nan nan nan nan nan nan nan nan nan nan nan nan nan nan nan nan nan nan nan nan nan nan nan nan nan nan nan nan nan nan nan nan nan nan nan nan nan nan nan nan nan nan nan nan nan nan nan nan nan nan nan nan nan nan nan nan nan nan nan nan nan nan nan
nan nan nan nan nan nan nan nan nan nan nan nan nan nan nan nan nan nan nan nan nan nan nan nan nan nan nan nan nan nan nan nan nan nan nan nan nan nan nan nan nan nan nan nan nan nan nan nan nan nan nan nan nan nan nan nan nan nan nan nan nan nan nan nan nan nan nan nan nan nan nan nan nan nan nan nan nan nan nan nan nan nan nan nan nan
nan nan nan nan nan nan nan nan nan nan nan nan nan nan nan nan nan nan nan nan nan nan nan nan nan nan nan nan nan nan nan nan nan nan nan nan nan nan nan nan nan nan nan nan nan nan nan nan nan nan nan nan nan nan nan nan nan nan nan nan nan nan nan nan nan nan nan nan nan nan nan nan nan nan nan nan nan nan nan nan nan nan nan nan nan
nan nan nan nan nan nan nan nan nan nan nan nan nan nan nan nan nan nan nan nan nan nan nan nan nan nan nan nan nan nan nan nan nan nan nan nan nan nan nan nan nan nan nan nan nan nan nan nan nan nan nan nan nan nan nan nan nan nan nan nan nan nan nan nan nan nan nan nan nan nan nan nan nan nan nan nan nan nan nan nan nan nan nan nan nan
nan nan nan nan nan nan nan nan nan nan nan nan nan nan nan nan nan nan nan nan nan nan nan nan nan nan nan nan nan nan nan nan nan nan nan nan nan nan nan nan nan nan nan nan nan nan nan nan nan nan nan nan nan nan nan nan nan nan nan nan nan nan nan nan nan nan nan nan nan nan nan nan nan nan nan nan nan nan nan nan nan nan nan nan nan
nan nan nan nan nan nan nan nan nan nan nan nan nan nan nan nan nan nan nan nan nan nan nan nan nan nan nan nan nan nan nan nan nan nan nan nan nan nan nan nan nan nan nan nan nan nan nan nan nan nan nan nan nan nan nan nan nan nan nan nan nan nan nan nan nan nan nan nan nan nan nan nan nan nan nan nan nan nan nan nan nan nan nan nan nan
nan nan nan nan nan nan nan nan nan nan nan nan nan nan nan nan nan nan nan nan nan nan nan nan nan nan nan nan nan nan nan nan nan nan nan nan nan nan nan nan nan nan nan nan nan nan nan nan nan nan nan nan nan nan nan nan nan nan nan nan nan nan nan nan nan nan nan nan nan nan nan nan nan nan nan nan nan nan nan nan nan nan nan nan nan
nan nan nan nan nan nan nan nan nan nan nan nan nan nan nan nan nan nan nan nan nan nan nan nan nan nan nan nan nan nan nan nan nan nan nan nan nan nan nan nan nan nan nan nan nan nan nan nan nan nan nan nan nan nan nan nan nan nan nan nan nan nan nan nan nan nan nan nan nan nan nan nan nan nan nan nan nan nan nan nan nan nan nan nan nan
nan nan nan nan nan nan nan nan nan nan nan nan nan nan nan nan nan nan nan nan nan nan nan nan nan nan nan nan nan nan nan nan nan nan nan nan nan nan nan nan nan nan nan nan nan nan nan nan nan nan nan nan nan nan nan nan nan nan nan nan nan nan nan nan nan nan nan nan nan nan nan nan nan nan nan nan nan nan nan nan nan nan nan nan nan
nan nan nan nan nan nan nan nan nan nan nan nan nan nan nan nan nan nan nan nan nan nan nan nan nan nan nan nan nan nan nan nan nan nan nan nan nan nan nan nan nan nan nan nan nan nan nan nan nan nan nan nan nan nan nan nan nan nan nan nan nan nan nan nan nan nan nan nan nan nan nan nan nan nan nan nan nan nan nan nan nan nan nan nan nan
nan nan nan nan nan nan nan nan nan nan nan nan nan nan nan nan nan nan nan nan nan nan nan nan nan nan nan nan nan nan nan nan nan nan nan nan nan nan nan nan nan nan nan nan nan nan nan nan nan nan nan nan nan nan nan nan nan nan nan nan nan nan nan nan nan nan nan nan nan nan nan nan nan nan nan nan nan nan nan nan nan nan nan nan nan
nan nan nan nan nan nan nan nan nan nan nan nan nan nan nan nan nan nan nan nan nan nan nan nan nan nan nan nan nan nan nan nan nan nan nan nan nan nan nan nan nan nan nan nan nan nan nan nan nan nan nan nan nan nan nan nan nan nan nan nan nan nan nan nan nan nan nan nan nan nan nan nan nan nan nan nan nan nan nan nan nan nan nan nan nan
nan nan nan nan nan nan nan nan nan nan nan nan nan nan nan nan nan nan nan nan nan nan nan nan nan nan nan nan nan nan nan nan nan nan nan nan nan nan nan nan nan nan nan nan nan nan nan nan nan nan nan nan nan nan nan nan nan nan nan nan nan nan nan nan nan nan nan nan nan nan nan nan nan nan nan nan nan nan nan nan nan nan nan nan nan
nan nan nan nan nan nan nan nan nan nan nan nan nan nan nan nan nan nan nan nan nan nan nan nan nan nan nan nan nan nan nan nan nan nan nan nan nan nan nan nan nan nan nan nan nan nan nan nan nan nan nan nan nan nan nan nan nan nan nan nan nan nan nan nan nan nan nan nan nan nan nan nan nan nan nan nan nan nan nan nan nan nan nan nan nan
nan nan nan nan nan nan nan nan nan nan nan nan nan nan nan nan nan nan nan nan nan nan nan nan nan nan nan nan nan nan nan nan nan nan nan nan nan nan nan nan nan nan nan nan nan nan nan nan nan nan nan nan nan nan nan nan nan nan nan nan nan nan nan nan nan nan nan nan nan nan nan nan nan nan nan nan nan nan nan nan nan nan nan nan nan
nan nan nan nan nan nan nan nan nan nan nan nan nan nan nan nan nan nan nan nan nan nan nan nan nan nan nan nan nan nan nan nan nan nan nan nan nan nan nan nan nan nan nan nan nan nan nan nan nan nan nan nan nan nan nan nan nan nan nan nan nan nan nan nan nan nan nan nan nan nan nan nan nan nan nan nan nan nan nan nan nan nan nan nan nan
nan nan nan nan nan nan nan nan nan nan nan nan nan nan nan nan nan nan nan nan nan nan nan nan nan nan nan nan nan nan nan nan nan nan nan nan nan nan nan nan nan nan nan nan nan nan nan nan nan nan nan nan nan nan nan nan nan nan nan nan nan nan nan nan nan nan nan nan nan nan nan nan nan nan nan nan nan nan nan nan nan nan nan nan nan
nan nan nan nan nan nan nan nan nan nan nan nan nan nan nan nan nan nan nan nan nan nan nan nan nan nan nan nan nan nan nan nan nan nan nan nan nan nan nan nan nan nan nan nan nan nan nan nan nan nan nan nan nan nan nan nan nan nan nan nan nan nan nan nan nan nan nan nan nan nan nan nan nan nan nan nan nan nan nan nan nan nan nan nan nan
nan nan nan nan nan nan nan nan nan nan nan nan nan nan nan nan nan nan nan nan nan nan nan nan nan nan nan nan nan nan nan nan nan nan nan nan nan nan nan nan nan nan nan nan nan nan nan nan nan nan nan nan nan nan nan nan nan nan nan nan nan nan nan nan nan nan nan nan nan nan nan nan nan nan nan nan nan nan nan nan nan nan nan nan nan